User: anonymous   Login
Location: Unspecified
(0.0000°N, 0.0000°E)
Time: 21:23:52
(UTC+00:00)
Language:

Uosat F - Orbit

View from above orbital plane
View from above orbital plane
View from above satellite
View from above satellite

Ground track
Ground track

The orbit data is extracted from the following two-line orbital elements,

1 21575U 91050B   22268.14848310  .00000136  00000-0  55933-4 0  9993
2 21575  98.5204 332.4942 0006422 315.9719  44.0958 14.41080725638432
Epoch (UTC): 25 September 2022 03:33:48
Eccentricity: 0.0006422
inclination: 98.5204°
perigee height: 750 km
apogee height: 759 km
right ascension of ascending node: 332.4942°
argument of perigee: 315.9719°
revolutions per day: 14.41080725
mean anomaly at epoch: 44.0958°
orbit number at epoch: 63843

The dashed part of the orbit path shows where the satellite is in the earth's shadow,  

DLR